This is the latest recevied weather packets stored in our database for station/object DG8AAC-L2. If no packets are shown the sender has not sent any weather packets the latest 10 day(s).
| Time | Temp. | Humidity | Pressure | Rain* | Wind** | Luminosity | Snow |
|---|---|---|---|---|---|---|---|
| 1777863217 | 16.67° C | 37% | 1013.7 hPa | - | - | - | - |
| 1777861417 | 17.22° C | 37% | 1013.8 hPa | - | - | - | - |
| 1777859617 | 17.22° C | 37% | 1013.6 hPa | - | - | - | - |
| 1777857817 | 17.22° C | 37% | 1014 hPa | - | - | - | - |
| 1777856017 | 17.78° C | 36% | 1013.5 hPa | - | - | - | - |
| 1777854217 | 17.78° C | 35% | 1013.5 hPa | - | - | - | - |
| 1777852417 | 18.33° C | 35% | 1013.5 hPa | - | - | - | - |
| 1777850617 | 18.89° C | 34% | 1013.6 hPa | - | - | - | - |
| 1777848817 | 18.89° C | 35% | 1013.8 hPa | - | - | - | - |
| 1777847017 | 18.33° C | 34% | 1013.7 hPa | - | - | - | - |
| 1777845217 | 18.89° C | 33% | 1013.6 hPa | - | - | - | - |
| 1777843417 | 18.89° C | 33% | 1013.6 hPa | - | - | - | - |
| 1777841617 | 19.44° C | 32% | 1013.5 hPa | - | - | - | - |
| 1777839817 | 19.44° C | 31% | 1013.2 hPa | - | - | - | - |
| 1777838017 | 20° C | 29% | 1013 hPa | - | - | - | - |
| 1777836217 | 20.56° C | 28% | 1012.7 hPa | - | - | - | - |
| 1777834417 | 20.56° C | 28% | 1012.4 hPa | - | - | - | - |
| 1777832617 | 21.11° C | 28% | 1012.1 hPa | - | - | - | - |
| 1777830817 | 21.67° C | 28% | 1012 hPa | - | - | - | - |
| 1777829016 | 21.67° C | 28% | 1012.1 hPa | - | - | - | - |
| 1777827216 | 21.67° C | 27% | 1012.2 hPa | - | - | - | - |
| 1777825416 | 21.11° C | 27% | 1012.3 hPa | - | - | - | - |
| 1777823616 | 21.11° C | 26% | 1012.2 hPa | - | - | - | - |
| 1777821816 | 21.11° C | 27% | 1012.3 hPa | - | - | - | - |
| 1777820016 | 21.67° C | 27% | 1012.6 hPa | - | - | - | - |
* Rain since midnight (hover to see other rain measurements)
** Current wind speed in m/s (hover to see current wind gust speed)